Regional Weather Roundup
Issued by NWS

Home | Current Version | Previous Version | Text Only | Print | Product List | Glossary On
Versions: 1 2 3 4 5 6 7 8 9 10 11 12 13 14 15 16 17 18 19 20 21 22 23 24 25 26 27 28 29 30 31 32 33 34 35 36 37 38 39 40 41 42 43 44 45 46 47 48 49 50
000
ASUS43 KOAX 291010
RWRNE

WEATHER ROUNDUP FOR NEBRASKA
NATIONAL WEATHER SERVICE OMAHA NE
500 AM CDT THU JUN 29 2017

NOTES: SATELLITE DATA IS BEING USED TO AUGMENT CLOUD COVER ABOVE
       12000 FEET.
       "FAIR" INDICATES FEW OR NO CLOUDS BELOW 12,000 FEET WITH NO
       SIGNIFICANT WEATHER AND/OR OBSTRUCTIONS TO VISIBILITY.

  * THESE STATIONS DO NOT REPORT WEATHER SUCH AS RAIN...SNOW OR FOG.

NEZ001>004-019>022-054>056-291100-
NEBRASKA PANHANDLE

CITY           SKY/WX    TMP DP  RH WIND       PRES   REMARKS
SCOTTSBLUFF    CLEAR     55  51  86 NW7       29.82R
ALLIANCE       CLEAR     51  49  92 S5        29.79S
CHADRON        CLEAR     50  49  96 W6        29.79R
GORDON         FAIR      52  50  93 CALM      29.77F
KIMBALL        CLEAR     54  51  90 W7        29.89S
SIDNEY         CLEAR     56  50  80 S5        29.84R
$$

NEZ057>060-069>072-079>082-291100-
SOUTHWEST NEBRASKA

CITY           SKY/WX    TMP DP  RH WIND       PRES   REMARKS
NORTH PLATTE   LGT RAIN  63  59  87 SE20      29.73F
IMPERIAL       CLOUDY    62  54  74 NE12      29.80F
LEXINGTON      CLOUDY    71  55  56 N10       29.88R
MCCOOK         LGT RAIN  68  56  65 NE22G29   29.84R
OGALLALA       MOCLDY    64  55  75 E8        29.77S
$$

NEZ005>010-023>029-035>040-094-291100-
NORTH CENTRAL NEBRASKA

CITY           SKY/WX    TMP DP  RH WIND       PRES   REMARKS
VALENTINE      MOCLDY    63  52  67 SE6       29.74S
AINSWORTH      CLOUDY    60  56  85 S8        29.74F
BROKEN BOW     LGT RAIN  65  57  75 NE13      29.86R
O`NEILL        CLOUDY    62  56  80 S8        29.76R
ORD            LGT RAIN  65  55  70 NW15G25   29.83R
THEDFORD       CLOUDY    62  57  85 S3        29.76F
$$

NEZ041-046>049-061>064-073>077-083>087-291100-
SOUTH CENTRAL NEBRASKA

CITY           SKY/WX    TMP DP  RH WIND       PRES   REMARKS
GRAND ISLAND   PTCLDY    69  65  86 NW5       29.80R
AURORA         CLOUDY    65  62  90 S5        29.77R
HASTINGS       CLOUDY    67  61  81 CALM      29.78R
HEBRON         CLOUDY    65  61  84 S10       29.77R
HOLDREGE       MOCLDY    72  60  67 NW13G25   29.86R
KEARNEY *      CLOUDY    72  61  68 NW15G32   29.84R
YORK           CLOUDY    64  59  82 S6        29.76F
$$

NEZ011>018-030>034-042>045-291100-
NORTHEAST NEBRASKA

CITY           SKY/WX    TMP DP  RH WIND       PRES   REMARKS
NORFOLK        CLOUDY    66  60  81 E6        29.73F
ALBION         CLOUDY    70  61  73 S8        29.78R
BLAIR          CLOUDY    71  65  83 SE8       29.74S
FREMONT        CLOUDY    71  67  89 CALM      29.74S
TEKAMAH        CLOUDY    66  63  90 N5        29.72S
WAYNE          CLOUDY    63  62  99 N3        29.73F
$$

NEZ050>053-065>068-078-088>093-291100-
SOUTHEAST NEBRASKA

CITY           SKY/WX    TMP DP  RH WIND       PRES   REMARKS
LINCOLN        CLOUDY    73  66  78 SW7       29.73S
OMAHA EPPLEY   CLOUDY    72  66  81 SE6       29.74R
BEATRICE       CLOUDY    70  64  80 E5        29.72R
FALLS CITY     LGT RAIN  72  65  78 W8        29.84R
NEBRASKA CITY  TSTM      72  69  92 S15       29.77F
PLATTSMOUTH    CLOUDY    74  67  79 SE10      29.74S
$$

NEZ044-045-051>053-067-291100-
OMAHA AREA

CITY           SKY/WX    TMP DP  RH WIND       PRES   REMARKS
OMAHA EPPLEY   CLOUDY    72  66  81 SE6       29.74R
BLAIR          CLOUDY    71  65  83 SE8       29.74S
FREMONT        CLOUDY    71  67  89 CALM      29.74S
MILLARD        CLOUDY    73  69  88 CALM      29.74S
OFFUTT AFB     CLOUDY    72  69  90 SE10      29.73F
PLATTSMOUTH    CLOUDY    74  67  79 SE10      29.74S
WAHOO          FAIR      68  65  91 SW3       29.74R
$$



USA.gov is the U.S. government's official web portal to all federal, state and local government web resources and services.